• In Latvia
  • List of Countries
  • For 7 days
  • Water Temperature
  • Satellite Maps
  • Weather Map
  • Weather Widgets
  • user-avatar
    Login

    Hourly Weather Townsville

    Today, 27 April, Thursday

    Time Temperature Precipitation Wind Pressure Humidity
    00:00 +23°C° 0 mm 2 mps 752 mmHg 92%
    01:00 +21°C° 0 mm 2 mps 752 mmHg 94%
    02:00 +21°C° 0 mm 2 mps 752 mmHg 92%
    03:00 +21°C° 0 mm 2 mps 752 mmHg 90%
    04:00 +21°C° 0 mm 2 mps 752 mmHg 88%
    05:00 +21°C° 0 mm 3 mps 753 mmHg 82%
    06:00 +21°C° 0 mm 3 mps 753 mmHg 76%
    07:00 +21°C° 0 mm 4 mps 753 mmHg 69%
    08:00 +23°C° 0 mm 4 mps 753 mmHg 61%
    09:00 +26°C° 0 mm 4 mps 753 mmHg 53%
    10:00 +28°C° 0 mm 4 mps 754 mmHg 45%
    11:00 +29°C° 0 mm 4 mps 753 mmHg 42%
    12:00 +31°C° 0 mm 3 mps 752 mmHg 40%
    13:00 +32°C° 0 mm 2 mps 752 mmHg 37%
    14:00 +32°C° 0 mm 2 mps 752 mmHg 37%
    15:00 +32°C° 0 mm 2 mps 751 mmHg 37%
    16:00 +33°C° 0 mm 3 mps 751 mmHg 37%
    17:00 +29°C° 0 mm 2 mps 751 mmHg 41%
    18:00 +27°C° 0 mm 2 mps 752 mmHg 44%
    19:00 +25°C° 0 mm 2 mps 752 mmHg 48%
    20:00 +24°C° 0 mm 3 mps 753 mmHg 46%
    21:00 +22°C° 0 mm 4 mps 753 mmHg 44%
    22:00 +21°C° 0 mm 5 mps 754 mmHg 42%
    23:00 +20°C° 0 mm 5 mps 754 mmHg 41%

    Tomorrow, 28 April, Friday

    Time Temperature Precipitation Wind Pressure Humidity
    00:00 +19°C° 0 mm 6 mps 754 mmHg 40%
    01:00 +19°C° 0 mm 6 mps 754 mmHg 38%
    02:00 +17°C° 0 mm 6 mps 754 mmHg 38%
    03:00 +17°C° 0 mm 7 mps 754 mmHg 37%
    04:00 +16°C° 0 mm 7 mps 754 mmHg 37%
    05:00 +16°C° 0 mm 7 mps 755 mmHg 40%
    06:00 +15°C° 0 mm 7 mps 755 mmHg 43%
    07:00 +15°C° 0 mm 6 mps 756 mmHg 46%
    08:00 +16°C° 0 mm 6 mps 756 mmHg 43%
    09:00 +19°C° 0 mm 6 mps 756 mmHg 41%
    10:00 +21°C° 0 mm 5 mps 756 mmHg 38%
    11:00 +23°C° 0 mm 5 mps 756 mmHg 35%
    12:00 +26°C° 0 mm 4 mps 755 mmHg 31%
    13:00 +27°C° 0 mm 4 mps 755 mmHg 28%
    14:00 +27°C° 0 mm 3 mps 754 mmHg 28%
    15:00 +27°C° 0 mm 3 mps 754 mmHg 28%
    16:00 +27°C° 0 mm 3 mps 753 mmHg 28%
    17:00 +25°C° 0 mm 3 mps 754 mmHg 32%
    18:00 +21°C° 0 mm 3 mps 754 mmHg 35%
    19:00 +19°C° 0 mm 4 mps 754 mmHg 39%
    20:00 +18°C° 0 mm 4 mps 755 mmHg 39%
    21:00 +17°C° 0 mm 4 mps 755 mmHg 39%
    22:00 +17°C° 0 mm 4 mps 756 mmHg 39%
    23:00 +15°C° 0 mm 4 mps 755 mmHg 40%

    Day after tomorrow, 29 April, Saturday

    Time Temperature Precipitation Wind Pressure Humidity
    00:00 +15°C° 0 mm 4 mps 755 mmHg 40%
    01:00 +14°C° 0 mm 4 mps 755 mmHg 40%
    02:00 +14°C° 0 mm 4 mps 755 mmHg 42%
    03:00 +13°C° 0 mm 4 mps 755 mmHg 43%
    04:00 +13°C° 0 mm 4 mps 755 mmHg 44%
    05:00 +13°C° 0 mm 4 mps 755 mmHg 46%
    06:00 +13°C° 0 mm 4 mps 755 mmHg 47%
    07:00 +12°C° 0 mm 4 mps 756 mmHg 48%
    08:00 +15°C° 0 mm 4 mps 756 mmHg 44%
    09:00 +19°C° 0 mm 4 mps 756 mmHg 40%
    10:00 +22°C° 0 mm 4 mps 756 mmHg 35%
    11:00 +25°C° 0 mm 3 mps 755 mmHg 34%
    12:00 +26°C° 0 mm 3 mps 755 mmHg 33%
    13:00 +27°C° 0 mm 3 mps 754 mmHg 31%
    14:00 +27°C° 0 mm 2 mps 754 mmHg 34%
    15:00 +27°C° 0 mm 2 mps 754 mmHg 37%
    16:00 +27°C° 0 mm 2 mps 753 mmHg 40%
    17:00 +24°C° 0 mm 2 mps 754 mmHg 53%
    18:00 +21°C° 0 mm 2 mps 754 mmHg 66%
    19:00 +18°C° 0 mm 2 mps 755 mmHg 79%
    20:00 +18°C° 0 mm 2 mps 755 mmHg 82%
    21:00 +18°C° 0 mm 2 mps 755 mmHg 85%
    22:00 +17°C° 0 mm 3 mps 756 mmHg 88%
    23:00 +17°C° 0 mm 3 mps 755 mmHg 89%

    30 April, Sunday

    Time Temperature Precipitation Wind Pressure Humidity
    00:00 +17°C° 0 mm 3 mps 755 mmHg 91%
    01:00 +17°C° 0 mm 3 mps 755 mmHg 92%
    02:00 +17°C° 0 mm 3 mps 754 mmHg 92%
    03:00 +17°C° 0 mm 4 mps 754 mmHg 92%
    04:00 +17°C° 0 mm 4 mps 754 mmHg 92%
    05:00 +17°C° 0 mm 4 mps 754 mmHg 91%
    06:00 +17°C° 0 mm 4 mps 755 mmHg 90%
    07:00 +17°C° 0 mm 4 mps 755 mmHg 89%
    08:00 +20°C° 0 mm 4 mps 755 mmHg 80%
    09:00 +23°C° 0 mm 5 mps 755 mmHg 71%
    10:00 +27°C° 0 mm 5 mps 755 mmHg 62%
    11:00 +27°C° 0.1 mm 5 mps 755 mmHg 62%
    12:00 +28°C° 0.1 mm 5 mps 754 mmHg 61%
    13:00 +29°C° 0.1 mm 5 mps 753 mmHg 61%
    14:00 +28°C° 0.1 mm 5 mps 753 mmHg 63%
    15:00 +28°C° 0.1 mm 6 mps 753 mmHg 65%
    16:00 +27°C° 0.1 mm 6 mps 753 mmHg 67%
    17:00 +26°C° 0.1 mm 6 mps 753 mmHg 75%
    18:00 +23°C° 0.1 mm 5 mps 754 mmHg 82%
    19:00 +22°C° 0.1 mm 5 mps 754 mmHg 89%
    20:00 +21°C° 0 mm 5 mps 754 mmHg 91%
    21:00 +21°C° 0 mm 5 mps 755 mmHg 92%
    22:00 +21°C° 0 mm 5 mps 755 mmHg 94%
    23:00 +20°C° 0.1 mm 5 mps 755 mmHg 94%

    1 May, Monday

    Time Temperature Precipitation Wind Pressure Humidity
    00:00 +20°C° 0.1 mm 4 mps 754 mmHg 95%
    01:00 +19°C° 0.1 mm 4 mps 754 mmHg 95%
    02:00 +19°C° 0 mm 4 mps 754 mmHg 95%
    03:00 +18°C° 0 mm 4 mps 753 mmHg 96%
    04:00 +18°C° 0 mm 4 mps 753 mmHg 96%
    05:00 +18°C° 0 mm 4 mps 754 mmHg 95%
    06:00 +18°C° 0 mm 4 mps 754 mmHg 95%
    07:00 +18°C° 0 mm 4 mps 754 mmHg 94%
    08:00 +21°C° 0 mm 4 mps 754 mmHg 84%
    09:00 +25°C° 0 mm 4 mps 754 mmHg 73%
    10:00 +27°C° 0 mm 3 mps 754 mmHg 62%
    11:00 +28°C° 0 mm 4 mps 754 mmHg 58%
    12:00 +30°C° 0 mm 4 mps 753 mmHg 53%
    13:00 +32°C° 0 mm 4 mps 752 mmHg 49%
    14:00 +30°C° 0.1 mm 4 mps 752 mmHg 54%
    15:00 +29°C° 0.1 mm 4 mps 752 mmHg 59%
    16:00 +28°C° 0.1 mm 5 mps 752 mmHg 63%
    17:00 +27°C° 0.3 mm 4 mps 752 mmHg 73%
    18:00 +25°C° 0.3 mm 4 mps 753 mmHg 83%
    19:00 +22°C° 0.3 mm 4 mps 753 mmHg 92%
    20:00 +22°C° 0.2 mm 4 mps 753 mmHg 93%
    21:00 +21°C° 0.2 mm 4 mps 753 mmHg 94%
    22:00 +21°C° 0.2 mm 3 mps 754 mmHg 95%
    23:00 +21°C° 0.2 mm 3 mps 753 mmHg 96%

    2 May, Tuesday

    Time Temperature Precipitation Wind Pressure Humidity
    00:00 +20°C° 0.2 mm 3 mps 753 mmHg 96%
    01:00 +20°C° 0.2 mm 2 mps 752 mmHg 97%
    02:00 +20°C° 0 mm 2 mps 752 mmHg 97%
    03:00 +20°C° 0 mm 2 mps 752 mmHg 97%
    04:00 +19°C° 0 mm 2 mps 752 mmHg 97%
    05:00 +20°C° 0 mm 2 mps 752 mmHg 97%
    06:00 +20°C° 0 mm 2 mps 753 mmHg 97%
    07:00 +20°C° 0 mm 2 mps 753 mmHg 98%
    08:00 +23°C° 0 mm 2 mps 753 mmHg 88%
    09:00 +26°C° 0 mm 2 mps 753 mmHg 78%
    10:00 +28°C° 0 mm 2 mps 753 mmHg 68%
    11:00 +29°C° 0.1 mm 2 mps 753 mmHg 65%
    12:00 +29°C° 0.1 mm 3 mps 752 mmHg 62%
    13:00 +30°C° 0.1 mm 3 mps 751 mmHg 59%
    14:00 +29°C° 0.1 mm 3 mps 751 mmHg 62%
    15:00 +29°C° 0.1 mm 3 mps 751 mmHg 65%
    16:00 +28°C° 0.1 mm 3 mps 751 mmHg 67%
    17:00 +27°C° 0.2 mm 3 mps 751 mmHg 76%
    18:00 +25°C° 0.2 mm 2 mps 752 mmHg 84%
    19:00 +23°C° 0.2 mm 2 mps 752 mmHg 92%
    20:00 +23°C° 0.4 mm 2 mps 753 mmHg 93%
    21:00 +23°C° 0.4 mm 2 mps 753 mmHg 94%
    22:00 +23°C° 0.4 mm 2 mps 753 mmHg 95%
    23:00 +21°C° 0.4 mm 2 mps 753 mmHg 96%
    Show more